Weather History for Davenport, IA

Change the Weather History Date:

Thursday, August 22, 2013

  Actual Average Record
Temperature  
Mean Temperature 72 °F 71 °F  
Max Temperature 79 °F 81 °F 96 °F (1968)
Min Temperature 64 °F 60 °F 50 °F (1997)
Degree Days  
Heating Degree Days 0 0  
Month to date heating degree days 7 0  
Since 1 June heating degree days 43 28  
Since 1 July heating degree days 19 4  
Cooling Degree Days 7 6  
Month to date cooling degree days 106 157  
Year to date cooling degree days 638 658  
Since 1 June cooling degree days 543 597  
Growing Degree Days 22 (Base 50)    
Moisture  
Dew Point 65 °F    
Average Humidity 79    
Maximum Humidity 93    
Minimum Humidity 64    
Precipitation  
Precipitation T in 0.13 in 2.26 in (1996)
Month to date precipitation 1.01 3.45  
Year to date precipitation 28.39 24.65  
Snow  
Snow 0.00 in - - ()
Month to date snowfall 0.0  
Since 1 June snowfall 0.0  
Since 1 July snowfall 0.0  
Snow Depth 0.00 in    
Sea Level Pressure  
Sea Level Pressure 30.07 in    
Wind  
Wind Speed 6 mph (ESE)    
Max Wind Speed 21 mph    
Max Gust Speed 26 mph    
Visibility 9 miles    
Events Rain , Thunderstorm    
T = Trace of Precipitation, MM = Missing Value Source: NWS Daily Summary

Daily Weather History Graph

Daily Weather History Graph

Search for Another Location

Airport:

Trip Planner

Search our weather history database for the weather conditions in past years. The results will help you decide how hot, cold, wet, or windy it might be!

Date:

Astronomy

Aug. 22, 2013 Rise Set
Actual Time 6:18 AM CDT 7:51 PM CDT
Civil Twilight 5:49 AM CDT 8:20 PM CDT
Nautical Twilight 5:13 AM CDT 8:55 PM CDT
Astronomical Twilight 4:36 AM CDT 9:32 PM CDT
Moon 8:32 PM CDT (8/22) 8:09 AM CDT (8/22)
Length of Visible Light 14h 31m
Length of Day
13h 32m
Waning Gibbous, 96% of the Moon is Illuminated
Aug 22
Waning Gibbous
Aug 28
Last Quarter
Sep 5
New
Sep 12
First Quarter
Sep 19
Full

Hourly Weather History & Observations

Time (CDT) Temp. Dew Point Humidity Pressure Visibility Wind Dir Wind Speed Gust Speed Precip Events Conditions
12:52 AM 75.9 °F 66.0 °F 71% 30.01 in 10.0 mi SSW 4.6 mph - N/A   Clear
1:52 AM 75.0 °F 66.0 °F 73% 30.01 in 10.0 mi SW 8.1 mph - N/A   Clear
2:52 AM 75.0 °F 64.9 °F 71% 30.01 in 10.0 mi WSW 8.1 mph - N/A   Clear
3:52 AM 75.0 °F 64.9 °F 71% 30.02 in 10.0 mi SW 5.8 mph - N/A   Clear
4:52 AM 73.9 °F 64.9 °F 73% 30.01 in 10.0 mi SW 5.8 mph - N/A   Clear
5:52 AM 73.0 °F 66.0 °F 79% 30.01 in 9.0 mi WSW 4.6 mph - N/A   Mostly Cloudy
6:52 AM 73.0 °F 66.0 °F 79% 30.02 in 8.0 mi SW 4.6 mph - N/A   Mostly Cloudy
7:52 AM 75.0 °F 66.0 °F 73% 30.03 in 7.0 mi WSW 5.8 mph - N/A   Mostly Cloudy
8:52 AM 75.9 °F 66.9 °F 74% 30.05 in 7.0 mi West 4.6 mph - N/A   Clear
9:52 AM 75.0 °F 66.9 °F 76% 30.09 in 8.0 mi NNE 6.9 mph - N/A   Scattered Clouds
10:22 AM 73.4 °F 66.2 °F 78% 30.14 in 10.0 mi North 11.5 mph - 0.00 in Rain , Thunderstorm Light Rain
10:48 AM 73.4 °F 66.2 °F 78% 30.15 in 10.0 mi NE 10.4 mph - 0.00 in Rain Light Rain
10:52 AM 72.0 °F 66.9 °F 84% 30.14 in 10.0 mi NE 11.5 mph - 0.00 in Rain Light Rain
11:47 AM 71.6 °F 66.2 °F 83% 30.16 in 10.0 mi ENE 11.5 mph - 0.00 in Thunderstorm Mostly Cloudy
11:52 AM 72.0 °F 66.0 °F 81% 30.12 in 10.0 mi ENE 12.7 mph - 0.00 in Thunderstorm Mostly Cloudy
12:02 PM 71.6 °F 66.2 °F 83% 30.11 in 8.0 mi East 15.0 mph - 0.00 in Rain Light Rain
12:52 PM 73.0 °F 64.0 °F 73% 30.09 in 10.0 mi East 12.7 mph - 0.00 in   Mostly Cloudy
1:52 PM 73.9 °F 64.0 °F 71% 30.07 in 10.0 mi ESE 16.1 mph - N/A   Clear
2:52 PM 73.9 °F 63.0 °F 68% 30.06 in 10.0 mi SSE 8.1 mph - N/A   Clear
3:52 PM 75.0 °F 64.9 °F 71% 30.06 in 10.0 mi South 4.6 mph - N/A   Clear
4:52 PM 77.0 °F 64.9 °F 66% 30.07 in 10.0 mi SW 6.9 mph - N/A   Clear
5:52 PM 77.0 °F 66.0 °F 69% 30.08 in 10.0 mi Calm Calm - N/A   Mostly Cloudy
6:52 PM 75.9 °F 66.0 °F 71% 30.07 in 10.0 mi North 5.8 mph - N/A   Scattered Clouds
7:52 PM 71.1 °F 66.0 °F 84% 30.08 in 10.0 mi NNE 4.6 mph - N/A   Clear
8:52 PM 68.0 °F 64.0 °F 87% 30.08 in 10.0 mi ENE 4.6 mph - N/A   Clear
9:52 PM 68.0 °F 64.0 °F 87% 30.10 in 9.0 mi East 4.6 mph - N/A   Clear
10:52 PM 66.0 °F 64.0 °F 93% 30.10 in 8.0 mi East 4.6 mph - N/A   Clear
11:52 PM 66.0 °F 64.0 °F 93% 30.11 in 7.0 mi ESE 3.5 mph - N/A   Clear